Date,TemperatureHighF,TemperatureAvgF,TemperatureLowF,DewpointHighF,DewpointAvgF,DewpointLowF,HumidityHigh,HumidityAvg,HumidityLow,PressureMaxIn,PressureMinIn,WindSpeedMaxMPH,WindSpeedAvgMPH,GustSpeedMaxMPH,PrecipitationSumIn
2013-1-1,55.0,43.5,35.1,54.5,40.2,28.4,98,88,74,30.13,29.92,20,9,20,0.04
2013-1-2,41.0,34.7,30.2,28.4,22.7,19.4,77,62,48,30.22,30.13,18,8,18,0.04
2013-1-3,39.4,35.3,31.5,26.7,21.4,19.6,66,57,51,30.34,30.19,13,6,13,0.04
2013-1-4,36.9,34.2,31.5,36.0,31.6,22.7,98,91,57,30.40,30.28,13,4,13,0.12
2013-1-5,54.9,42.5,35.8,41.4,36.0,32.2,98,81,45,30.28,30.13,11,2,11,0.04
2013-1-6,54.3,43.1,32.9,37.7,26.3,20.7,89,55,33,30.31,30.22,17,6,17,0.04
2013-1-7,51.3,43.6,37.0,36.5,25.7,20.0,70,49,41,30.25,29.98,13,4,13,0.04
2013-1-8,55.0,48.3,44.6,54.5,47.0,36.8,98,95,72,29.98,29.80,17,5,17,0.63
2013-1-9,54.0,51.9,48.2,53.4,51.4,47.7,98,98,98,29.98,29.83,17,0,17,0.79
2013-1-10,60.1,49.8,40.5,48.0,40.4,34.9,98,73,44,29.98,29.92,12,2,12,0.04
2013-1-11,67.5,56.4,46.4,61.7,49.3,36.0,98,78,59,29.95,29.78,23,10,23,0.04
2013-1-12,67.8,60.5,41.5,66.2,54.7,26.0,98,83,48,29.83,29.66,28,10,28,0.04
2013-1-13,46.4,37.8,30.0,26.0,20.8,17.0,61,51,39,30.10,29.83,29,14,29,0.04
2013-1-14,32.2,29.0,28.0,17.9,15.0,14.0,58,55,54,30.10,30.07,19,14,19,0.00
2013-1-15,28.0,28.0,28.0,14.0,14.0,14.0,55,55,55,30.10,30.10,16,16,16,0.00
2013-1-16,43.7,33.1,28.0,18.1,15.0,14.0,55,48,33,30.22,30.10,16,12,16,0.00
2013-1-17,60.4,48.6,37.0,31.6,25.7,17.4,55,42,32,30.40,30.22,17,7,17,0.00
2013-1-18,60.4,49.0,39.2,32.5,26.2,21.5,52,41,33,30.40,30.22,12,5,12,0.00
2013-1-19,63.5,50.4,40.6,41.2,33.5,24.8,73,54,36,30.22,30.10,18,7,18,0.00
2013-1-20,68.0,56.5,45.9,45.8,37.9,31.2,80,52,33,30.19,30.04,11,6,11,0.00
2013-1-21,67.6,55.9,48.0,53.1,43.6,39.0,92,65,40,30.19,30.07,8,4,8,0.00
2013-1-22,66.9,55.6,44.2,45.2,40.1,36.8,76,58,39,30.25,30.13,15,6,15,0.00
2013-1-23,69.6,56.8,48.0,53.0,47.7,39.2,95,74,47,30.28,30.16,17,8,17,0.00
2013-1-24,74.3,66.9,58.5,65.3,52.5,46.6,98,62,41,30.22,30.07,16,8,16,0.00
2013-1-25,73.9,63.0,55.6,61.8,54.2,48.7,98,75,46,30.10,30.01,15,7,15,0.00
2013-1-26,62.2,55.1,47.5,59.3,52.1,44.9,98,90,78,30.13,30.01,14,5,14,0.00
2013-1-27,73.4,63.9,57.4,62.1,57.1,52.8,96,80,50,30.04,29.92,28,11,28,0.00
2013-1-28,72.1,66.6,63.7,64.4,61.7,57.8,98,85,62,30.01,29.83,25,12,25,0.00
2013-1-29,77.0,63.6,49.8,64.6,50.4,18.9,98,67,29,29.86,29.54,31,12,31,0.00
2013-1-30,52.3,47.1,38.1,21.1,17.7,14.2,44,31,26,30.07,29.78,33,14,33,0.00
2013-1-31,50.5,50.5,50.5,17.0,17.0,17.0,26,26,26,30.07,30.07,11,11,11,0.00
2013-2-1,50.5,50.5,50.5,17.0,17.0,17.0,26,26,26,30.07,30.07,11,11,11,0.00
2013-2-2,50.5,50.5,50.5,17.0,17.0,17.0,26,26,26,30.07,30.07,11,11,11,0.00
2013-2-3,50.5,50.5,50.5,17.0,17.0,17.0,26,26,26,30.07,30.07,11,11,11,0.00
2013-2-4,50.5,50.5,50.5,17.0,17.0,17.0,26,26,26,30.07,30.07,11,11,11,0.00
2013-2-5,50.5,50.5,50.5,17.0,17.0,17.0,26,26,26,30.07,30.07,11,11,11,0.00
2013-2-6,50.5,50.5,50.5,17.0,17.0,17.0,26,26,26,30.07,30.07,11,11,11,0.00
2013-2-7,50.5,50.5,50.5,17.0,17.0,17.0,26,26,26,30.07,30.07,11,11,11,0.00
2013-2-8,50.5,50.5,50.5,17.0,17.0,17.0,26,26,26,30.07,30.07,11,11,11,0.00
2013-2-9,50.5,50.5,50.5,17.0,17.0,17.0,26,26,26,30.07,30.07,11,11,11,0.00
2013-2-10,50.5,50.5,50.5,17.0,17.0,17.0,26,26,26,30.07,30.07,11,11,11,0.00
2013-2-11,50.5,50.5,50.5,17.0,17.0,17.0,26,26,26,30.07,30.07,11,11,11,0.00
2013-2-12,50.5,50.5,50.5,17.0,17.0,17.0,26,26,26,30.07,30.07,11,11,11,0.00
2013-2-21,64.4,57.1,51.8,25.8,21.3,18.0,26,25,22,29.83,29.75,12,6,12,0.00
2013-2-22,59.7,49.1,39.2,32.1,25.8,15.6,74,42,26,29.95,29.80,17,7,17,0.00
2013-2-23,68.2,52.3,36.3,35.9,26.0,20.8,54,38,23,29.98,29.83,17,6,17,0.00
2013-2-24,66.6,54.0,43.3,42.4,35.8,27.8,72,51,38,29.86,29.69,22,11,22,0.00
2013-2-25,66.6,66.6,66.6,41.5,41.5,41.5,40,40,40,29.69,29.69,22,22,22,0.00
2013-3-21,69.3,65.0,61.7,53.3,52.1,50.6,73,63,54,29.66,29.60,27,12,27,0.00
2013-3-22,82.4,69.2,60.3,64.4,54.7,46.5,94,64,35,29.72,29.63,18,7,18,0.00
2013-3-23,84.7,64.0,48.9,63.5,46.7,37.0,85,58,20,29.75,29.57,25,5,25,0.00
2013-3-24,65.7,48.5,36.0,52.0,26.1,14.4,70,44,27,30.10,29.72,33,14,33,0.00
2013-3-25,57.4,42.4,31.5,21.9,15.6,11.7,44,34,25,30.31,30.10,17,6,17,0.00
2013-3-26,67.5,49.2,35.4,28.4,18.6,11.1,37,30,23,30.40,30.19,15,5,15,0.00
2013-3-27,67.6,53.4,42.6,39.3,29.7,14.3,57,41,27,30.22,30.07,20,10,20,0.00
2013-3-28,68.0,58.9,52.5,54.8,49.1,39.3,78,70,57,30.13,30.04,20,10,20,0.00
2013-3-29,73.4,63.8,55.8,57.6,50.7,47.8,84,65,44,30.10,30.01,27,10,27,0.00
2013-3-30,83.7,70.3,59.9,61.4,54.8,51.7,89,62,35,30.07,29.89,17,8,17,0.00
2013-3-31,82.0,66.2,61.7,62.5,56.4,50.0,87,72,35,29.95,29.86,15,7,15,0.12
2013-4-1,85.3,68.6,58.8,64.0,55.8,49.3,91,67,35,30.04,29.89,22,4,22,0.00
2013-4-2,71.1,65.3,62.1,64.6,58.5,53.6,91,79,65,29.95,29.83,17,7,17,0.00
2013-4-4,57.6,51.6,47.3,34.5,33.9,33.2,59,51,41,30.13,30.07,11,5,11,0.00
2013-4-5,75.7,54.3,37.8,48.0,38.3,33.7,92,60,25,30.19,30.01,15,4,15,0.00
2013-4-6,79.3,59.3,48.4,52.2,43.8,36.7,87,59,33,30.01,29.83,26,11,26,0.00
2013-4-7,81.0,69.6,59.4,62.8,57.6,52.0,95,69,42,29.89,29.75,20,9,20,0.00
2013-4-8,73.2,65.8,62.2,69.5,62.5,56.9,97,89,76,29.80,29.66,21,10,21,0.00
2013-4-9,87.6,72.5,64.8,73.3,64.5,59.5,98,80,40,29.69,29.57,23,10,23,0.00
2013-4-10,77.4,53.5,38.8,65.8,45.2,36.1,96,75,50,29.89,29.63,27,14,27,0.00
2013-4-11,45.0,44.8,44.6,36.5,36.2,35.8,72,72,71,29.92,29.89,17,12,17,0.00
2013-4-25,60.8,59.0,58.8,38.7,37.2,33.7,47,44,36,30.16,30.13,12,5,12,0.00
2013-4-26,75.4,64.4,55.8,67.1,58.4,38.5,98,82,47,30.13,30.01,19,9,19,0.00
2013-4-27,84.2,69.4,65.7,71.6,65.6,54.8,98,90,41,30.07,29.89,22,4,22,0.31
2013-4-28,86.4,69.9,59.4,68.7,59.3,51.0,98,74,35,30.01,29.83,14,4,14,0.04
2013-4-29,85.6,71.6,63.1,67.6,59.4,51.5,98,70,34,29.92,29.75,22,5,22,0.04
2013-5-16,90.7,81.6,73.2,70.8,64.8,59.8,92,60,38,29.80,29.72,15,7,15,0.00
2013-5-17,94.8,79.1,68.9,74.1,68.9,62.1,98,75,40,29.89,29.80,19,8,19,0.00
2013-5-18,91.4,76.8,66.9,74.1,65.4,59.1,98,72,39,29.92,29.80,20,10,20,0.00
2013-5-19,87.6,76.4,67.5,71.3,65.5,61.0,98,71,48,29.86,29.75,17,10,17,0.00
2013-5-20,91.4,76.4,67.6,70.3,67.1,61.8,98,77,39,29.83,29.69,17,10,17,0.00
2013-5-21,83.7,76.3,68.5,71.2,68.4,66.4,98,78,60,29.86,29.75,17,9,17,0.00
2013-5-22,93.6,75.7,61.0,67.1,53.2,45.7,71,48,27,29.92,29.80,13,5,13,0.00
2013-5-23,89.1,76.0,68.9,71.2,66.9,61.4,98,76,43,30.01,29.86,13,7,13,0.00
2013-5-24,75.4,68.4,64.0,70.8,66.5,62.2,98,94,76,30.10,30.01,13,4,13,0.39
2013-5-25,76.5,69.6,65.3,73.7,67.4,64.7,98,93,74,30.10,30.01,22,7,22,0.55
2013-5-26,79.7,70.5,65.8,78.3,68.4,61.7,98,93,70,30.07,29.98,17,2,17,0.04
2013-5-27,85.6,72.6,66.7,76.4,67.9,63.5,98,87,53,30.01,29.83,21,3,21,0.00
2013-5-28,86.0,74.3,67.3,69.2,65.5,60.1,97,76,44,29.89,29.78,24,11,24,0.00
2013-5-29,71.6,70.1,69.3,68.4,67.7,66.2,97,92,83,29.89,29.75,27,12,27,0.00
2013-5-31,90.0,83.2,75.0,71.9,68.9,66.8,90,64,48,29.80,29.78,17,9,17,0.00
2013-6-1,95.5,79.9,70.9,72.2,68.2,61.3,98,72,37,29.92,29.80,24,9,24,0.00
2013-6-2,87.8,74.5,65.1,71.0,60.0,49.0,98,67,28,30.07,29.92,18,5,18,0.12
2013-6-3,91.8,75.9,63.7,67.3,57.4,52.2,90,57,28,29.98,29.86,11,4,11,0.00
2013-6-4,92.1,77.5,66.0,67.3,58.3,51.2,98,57,28,29.92,29.83,15,7,15,0.00
2013-6-5,94.3,77.8,66.4,67.6,59.5,50.8,98,58,28,29.89,29.78,17,7,17,0.00
2013-6-6,95.4,78.4,67.8,66.9,58.7,51.5,92,56,24,29.95,29.80,15,5,15,0.00
2013-6-7,78.3,69.6,64.9,62.2,57.2,49.4,88,66,42,30.04,29.89,12,4,12,0.00
2013-6-8,86.2,73.6,62.6,65.1,55.4,47.7,75,54,39,29.95,29.80,15,6,15,0.00
2013-6-9,89.8,75.0,69.6,71.1,64.8,56.3,98,73,35,29.98,29.83,15,5,15,0.00
2013-6-10,93.4,78.5,67.1,75.0,63.4,52.6,98,67,30,30.01,29.95,10,4,10,0.00
2013-6-11,91.6,77.7,70.0,72.0,64.5,54.5,98,69,32,30.04,29.98,18,6,18,0.00
2013-6-12,91.6,77.9,70.3,72.9,66.6,54.9,98,74,30,30.07,29.95,15,8,15,0.00
2013-6-27,88.9,82.9,80.8,47.6,46.1,41.3,30,28,19,29.98,29.95,6,3,6,0.00
2013-6-28,103.8,84.0,69.3,70.9,55.6,44.3,91,46,15,30.04,29.89,13,4,13,0.00
2013-6-29,106.3,89.8,77.4,53.6,47.1,40.7,36,25,12,29.92,29.80,14,4,14,0.00
2013-6-30,84.9,75.8,66.0,69.7,59.7,47.9,98,62,29,30.04,29.86,27,3,27,0.51
2013-7-1,80.8,73.6,67.1,58.6,48.2,37.6,61,42,23,30.04,29.92,17,6,17,0.12
2013-7-2,87.1,75.1,63.1,50.1,40.2,29.5,52,31,13,30.10,29.98,15,5,15,0.12
2013-7-3,95.2,77.5,65.7,44.4,34.9,28.2,43,23,11,30.07,29.92,13,4,13,0.12
2013-7-4,93.4,76.7,64.4,58.3,47.1,32.2,74,40,14,30.01,29.92,12,4,12,0.12
2013-7-5,95.0,78.0,66.0,67.9,53.0,42.2,95,50,17,30.01,29.89,16,5,16,0.12
2013-7-6,95.9,79.9,67.1,69.5,55.2,43.4,94,49,18,29.95,29.86,15,5,15,0.12
2013-7-7,97.0,80.4,69.4,71.9,62.2,53.2,96,59,26,30.01,29.92,18,5,18,0.12
2013-7-8,80.2,74.1,70.5,75.0,69.6,65.0,98,87,64,30.13,29.98,15,5,15,0.83
2013-7-9,91.8,78.9,70.0,76.7,65.6,54.1,98,70,30,30.16,30.04,14,6,14,0.12
2013-7-10,97.0,81.2,69.8,75.8,62.8,48.7,98,61,20,30.13,29.98,13,6,13,0.12
2013-7-11,97.5,81.3,70.5,73.5,60.9,45.6,96,56,20,30.04,29.92,13,6,13,0.12
2013-7-12,100.0,82.0,68.7,71.6,56.9,43.4,95,51,16,30.01,29.92,14,5,14,0.12
2013-7-13,100.2,84.1,71.6,64.1,51.9,40.9,71,38,16,30.01,29.89,14,4,14,0.12
2013-7-14,94.6,80.2,72.3,62.6,55.4,43.6,71,45,18,29.95,29.86,15,6,15,0.12
2013-7-15,73.9,70.9,66.4,73.3,69.0,62.8,98,94,72,30.04,29.89,13,4,13,0.55
2013-7-16,82.9,73.2,70.0,76.2,69.0,60.8,98,88,56,30.13,30.01,14,4,15,0.12
2013-7-17,87.3,73.3,68.2,74.3,67.7,58.6,98,84,46,30.19,30.13,20,4,20,0.12
2013-7-18,92.1,76.5,67.8,75.5,65.2,53.2,98,73,31,30.19,30.01,14,4,14,0.12
2013-7-19,95.9,78.5,68.5,73.1,61.8,49.9,98,64,24,30.10,29.92,11,4,11,0.12
2013-7-20,94.8,79.1,68.0,72.7,61.4,50.8,98,61,25,30.04,29.89,14,6,14,0.12
2013-7-21,93.6,77.4,70.2,73.0,66.0,56.7,98,72,32,29.98,29.89,15,6,15,0.12
2013-7-22,93.7,80.0,73.2,73.0,66.3,54.5,95,69,29,30.01,29.92,17,8,17,0.00
2013-7-23,97.2,82.8,73.9,71.4,61.1,46.0,89,55,19,30.01,29.92,17,8,17,0.00
2013-7-24,95.0,82.2,73.2,72.4,63.4,49.8,96,58,23,30.04,29.92,14,6,14,0.00
2013-7-25,99.7,83.9,70.5,72.4,59.0,43.5,97,51,16,30.07,29.98,13,5,13,0.00
2013-7-26,98.6,83.3,70.9,72.5,60.5,46.5,95,52,18,30.07,29.92,13,7,13,0.00
2013-7-27,88.7,79.8,71.8,68.3,61.2,51.2,78,55,32,30.01,29.92,13,6,13,0.00
2013-7-28,96.1,79.9,67.3,72.0,62.1,54.7,93,60,28,29.98,29.86,14,5,14,0.00
2013-7-29,98.1,83.1,73.6,70.9,60.2,43.3,90,54,16,30.04,29.95,19,9,19,0.00
2013-7-30,99.1,83.2,72.0,69.5,60.3,45.5,89,54,18,30.10,30.01,19,9,19,0.00
2013-7-31,104.4,84.3,69.6,67.9,53.3,38.0,89,44,12,30.10,29.98,14,6,14,0.00
2013-8-1,102.0,85.4,72.1,66.8,54.1,42.6,75,39,16,30.07,29.95,13,5,13,0.00
2013-8-2,100.9,84.6,71.1,62.4,50.4,38.3,64,35,12,30.01,29.92,17,6,17,0.00
2013-8-3,99.7,83.7,70.7,69.6,56.0,42.8,91,46,15,30.04,29.98,16,7,16,0.00
2013-8-4,98.2,83.0,71.1,73.0,62.2,50.3,95,55,21,30.10,29.98,15,7,15,0.00
2013-8-5,100.6,83.6,70.0,70.2,57.8,44.6,90,48,16,30.07,29.92,15,7,15,0.00
2013-8-6,101.5,84.2,69.4,72.2,59.1,43.4,96,52,15,29.98,29.86,20,8,20,0.00
2013-8-7,104.4,85.1,71.1,72.3,58.5,40.4,96,50,15,29.95,29.83,17,7,17,0.00
2013-8-8,102.0,84.1,70.7,69.8,57.4,43.4,94,49,15,29.95,29.83,16,7,16,0.00
2013-8-9,104.5,84.8,69.8,71.9,51.8,31.0,98,45,9,30.01,29.92,13,6,13,0.00
2013-8-10,103.3,84.6,73.2,65.4,56.5,43.4,76,44,15,30.10,29.98,17,5,17,0.00
2013-8-11,100.8,81.3,71.8,71.8,61.8,46.5,90,58,18,30.10,30.01,20,4,20,0.00
2013-8-12,95.9,80.6,69.6,73.4,62.2,51.2,98,61,24,30.10,29.98,15,6,15,0.00
2013-8-13,101.3,83.8,71.1,69.3,57.0,44.0,89,47,16,30.07,29.95,15,6,15,0.00
2013-8-14,100.2,82.7,72.5,69.9,59.4,44.6,86,50,17,30.04,29.92,15,6,15,0.00
2013-8-15,91.4,76.4,69.3,78.3,64.8,56.8,91,70,34,30.04,29.95,17,4,17,0.31
2013-8-16,91.2,75.8,67.8,76.0,61.8,42.7,98,70,19,30.10,29.98,24,5,24,0.00
2013-8-17,92.8,78.7,66.4,69.6,54.5,39.1,94,51,17,30.07,29.98,17,4,232,0.00
2013-8-18,97.7,80.7,68.5,55.6,46.8,40.4,49,33,16,30.10,30.01,11,4,11,0.00
2013-8-19,96.1,80.4,68.4,56.2,49.1,43.4,62,36,18,30.10,29.95,12,4,13,0.00
2013-8-20,96.4,80.0,67.8,64.1,52.4,39.3,76,44,16,30.04,29.98,14,5,14,0.00
2013-8-21,96.8,78.9,69.6,71.6,61.8,47.7,94,62,20,30.10,29.98,17,6,17,0.00
2013-8-22,96.3,80.9,69.8,73.8,61.1,50.4,98,58,24,30.13,29.98,183,4,183,0.00
2013-8-23,99.5,82.2,70.9,70.4,58.2,44.4,88,50,18,30.07,29.95,15,4,15,0.00
2013-8-24,97.0,82.3,71.4,66.6,57.5,47.5,78,47,19,30.10,29.98,13,4,13,0.00
2013-8-25,95.0,81.4,70.9,68.4,60.0,49.0,83,53,23,30.13,30.04,16,4,16,0.00
2013-8-26,90.1,76.4,70.9,73.9,65.2,57.5,94,71,36,30.16,30.04,15,4,15,0.00
2013-8-27,88.5,76.2,69.4,77.7,66.3,54.5,98,76,33,30.13,30.04,15,6,15,0.63
2013-8-28,95.2,79.3,68.5,75.7,61.9,47.2,98,63,21,30.16,30.04,13,5,13,0.00
2013-8-29,97.5,81.6,71.2,72.8,58.5,43.9,96,53,17,30.13,30.01,10,4,10,0.00
2013-8-30,100.8,83.6,72.7,63.0,53.5,43.4,64,39,16,30.07,29.95,9,4,9,0.00
2013-8-31,100.2,83.3,72.0,65.0,55.9,44.7,72,43,16,30.01,29.86,10,5,10,0.00
2013-9-1,100.8,83.3,70.7,71.8,58.1,45.3,92,49,17,29.98,29.86,12,5,12,0.00
2013-9-2,91.8,80.8,72.3,68.9,59.8,51.9,84,51,29,30.04,29.92,13,5,13,0.00
2013-9-3,100.0,82.2,70.0,65.1,55.7,43.3,82,47,16,30.07,29.95,10,3,10,0.00
2013-9-4,97.0,78.8,71.6,65.4,59.9,48.7,78,55,24,30.10,30.01,15,4,15,0.08
2013-9-5,97.0,77.7,69.8,72.2,64.9,49.6,96,72,21,30.16,30.07,13,4,13,0.00
2013-9-6,97.3,80.9,71.1,72.6,61.9,51.5,95,59,23,30.16,30.01,12,4,12,0.00
2013-9-7,99.3,79.5,70.7,73.0,62.9,51.1,96,62,22,30.10,29.95,14,4,232,0.00
2013-9-8,94.3,76.3,70.3,74.2,65.5,53.5,98,73,28,30.04,29.95,17,4,17,0.00
2013-9-9,91.9,75.9,68.7,71.9,63.9,52.3,98,71,29,30.04,29.95,16,5,16,0.00
2013-9-10,88.9,73.4,68.9,80.2,68.7,61.5,98,87,43,30.13,30.04,15,4,15,0.20
2013-9-11,90.0,76.2,68.9,78.0,66.8,48.9,98,77,30,30.16,30.04,10,4,10,0.20
2013-9-12,94.3,78.4,68.9,74.9,60.6,43.7,98,63,20,30.13,30.01,10,3,10,0.00
2013-9-13,97.0,80.3,70.2,67.8,54.5,41.1,85,48,17,30.04,29.92,13,4,13,0.00
2013-9-14,97.3,80.1,69.4,62.1,53.5,44.0,72,44,17,30.01,29.92,17,5,17,0.00
2013-9-15,93.2,78.2,69.3,71.5,61.9,52.5,94,62,27,30.10,29.98,13,4,13,0.00
2013-9-16,88.7,74.5,70.2,73.0,67.2,60.8,97,80,43,30.13,30.04,13,3,13,0.08
2013-9-17,88.5,75.5,69.1,74.9,66.7,55.9,98,78,38,30.13,30.01,15,3,15,0.00
2013-9-18,90.3,76.3,70.0,76.2,66.2,53.5,98,76,32,30.10,29.95,13,4,14,0.04
2013-9-19,88.5,76.4,70.5,77.8,68.6,59.3,98,80,40,30.01,29.89,14,5,15,0.04
2013-9-20,75.6,70.3,66.6,74.8,69.5,66.0,98,97,86,30.04,29.89,21,7,24,2.60
2013-9-21,79.5,68.9,62.4,68.2,53.6,35.0,98,68,21,30.22,29.95,20,9,20,0.00
2013-9-22,84.4,68.5,58.1,42.5,35.9,27.6,46,32,14,30.66,29.89,11,4,11,0.00
2013-9-23,90.3,72.6,60.1,40.5,34.8,28.2,42,27,12,30.19,29.83,9,3,232,0.00
2013-9-24,93.7,77.8,68.0,43.7,39.6,33.7,35,26,15,30.10,29.92,11,4,11,0.00
2013-9-25,93.6,79.3,70.5,51.3,44.5,39.6,42,30,17,30.04,29.89,13,4,13,0.00
2013-9-26,92.1,76.4,65.8,63.7,48.5,39.7,76,41,17,30.10,29.89,13,6,15,0.00
2013-9-27,89.8,77.0,70.7,75.0,66.2,56.6,94,72,35,30.10,29.92,17,8,17,0.00
2013-9-28,83.3,75.5,66.2,74.4,70.0,63.1,98,84,53,31.31,30.01,22,7,22,0.12
2013-9-29,74.1,65.5,60.6,67.1,59.6,51.3,98,84,48,33.05,31.10,17,8,17,15.75
2013-9-30,91.0,73.0,61.3,63.7,50.9,39.2,89,52,18,33.05,30.45,11,4,11,0.00
2013-10-1,90.7,76.4,66.6,72.3,59.1,47.6,98,61,26,33.05,30.37,14,6,16,0.00
2013-10-2,90.5,77.2,70.7,74.8,63.2,51.3,98,68,28,33.05,30.90,16,7,16,0.00
2013-10-3,90.5,77.1,68.2,69.9,61.1,50.5,97,63,28,0.00,40.00,15,8,15,0.00
2013-10-4,89.6,76.4,69.4,67.7,61.2,52.1,93,64,30,33.05,33.05,20,9,20,0.00
2013-10-5,87.1,70.1,57.0,69.3,55.8,31.5,95,65,32,19.76,19.76,23,9,23,0.00
2013-10-6,74.3,59.7,48.4,50.2,35.9,22.5,98,54,16,19.76,19.76,21,8,21,0.35
2013-10-7,82.6,69.5,60.6,31.1,24.3,18.2,30,19,14,19.76,19.76,11,4,11,0.00
2013-10-8,85.3,68.8,58.1,38.2,33.1,28.1,38,28,13,19.76,19.76,15,5,15,0.00
2013-10-9,84.0,68.3,56.5,59.0,46.1,34.9,87,49,22,19.76,19.76,13,6,13,0.00
2013-10-10,84.4,69.8,62.2,61.6,55.2,47.3,96,65,30,19.76,19.76,17,8,17,0.00
2013-10-11,86.7,75.1,67.8,70.5,64.2,56.0,96,73,36,19.76,19.76,19,9,19,0.00
2013-10-12,89.1,77.3,72.0,74.2,66.9,57.8,98,74,39,19.76,19.76,14,4,14,0.00
2013-10-13,72.5,68.2,63.9,71.4,67.1,63.3,98,96,82,28.05,19.76,15,2,15,2.20
2013-10-14,81.7,71.7,67.6,75.8,64.8,52.3,98,82,40,28.02,27.88,17,4,17,2.17
2013-10-15,77.9,68.7,53.1,70.5,63.4,52.3,98,85,55,27.94,27.85,19,8,19,2.17
2013-10-16,52.9,51.7,51.3,52.3,51.1,50.7,98,98,98,27.94,27.91,20,11,20,0.00
2013-11-29,0.0,0.0,0.0,0.0,0.0,0.0,0,0,100,28.26,28.23,13,6,15,0.00
2013-11-30,57.2,0.8,0.0,54.3,0.7,0.0,90,1,88,28.23,28.08,17,7,17,0.00
2013-12-1,64.9,58.1,54.7,60.2,55.4,52.5,98,91,71,28.08,27.91,14,8,16,0.00
2013-12-2,77.0,62.3,55.2,56.3,41.7,20.3,98,61,15,27.91,27.64,11,5,15,0.00
2013-12-3,81.5,66.4,55.2,41.0,30.8,18.5,58,30,12,27.70,27.58,11,5,15,0.00
2013-12-4,76.8,65.7,61.0,59.5,47.1,33.2,88,54,34,27.73,27.64,13,6,13,0.00
2013-12-5,62.8,44.5,31.6,60.8,38.1,17.3,98,79,55,27.94,27.73,26,13,30,0.00
2013-12-19,65.5,63.5,61.7,52.7,50.7,49.3,70,63,58,27.79,27.73,17,11,20,0.04
2013-12-21,64.2,57.6,50.9,58.1,31.7,21.1,98,43,23,29.84,27.61,21,7,21,0.04
2013-12-22,52.7,44.3,33.3,34.6,23.7,16.9,71,45,29,30.31,29.84,23,10,23,0.00
2013-12-23,53.8,39.8,26.6,22.4,15.9,9.7,69,41,18,30.46,30.31,13,5,15,0.00
2013-12-24,37.0,35.3,34.0,19.7,18.2,16.1,54,49,42,30.46,30.43,6,5,8,0.00
2014-1-2,46.6,40.1,35.4,15.7,14.6,12.9,41,35,28,30.37,30.31,16,6,18,0.08